• In Italy
  • List of Countries
  • For 7 days
  • Water Temperature
  • Satellite Maps
  • Weather Map
  • Weather Widgets
  • user-avatar
    Login

    Hourly Weather Lewis

    Today, 24 November, Friday

    Time Temperature Precipitation Wind Pressure Humidity
    00:00 +1°C° 0.3 mm 11 mps 740 mmHg 61%
    01:00 +1°C° 0.3 mm 11 mps 740 mmHg 61%
    02:00 +1°C° 0.3 mm 11 mps 740 mmHg 62%
    03:00 +1°C° 0.3 mm 11 mps 740 mmHg 62%
    04:00 0°C° 0.3 mm 10 mps 740 mmHg 63%
    05:00 0°C° 0.3 mm 10 mps 741 mmHg 64%
    06:00 0°C° 0.3 mm 10 mps 741 mmHg 65%
    07:00 0°C° 0.2 mm 10 mps 741 mmHg 64%
    08:00 0°C° 0.2 mm 10 mps 741 mmHg 63%
    09:00 0°C° 0.2 mm 9 mps 741 mmHg 62%
    10:00 0°C° 0.3 mm 10 mps 741 mmHg 62%
    11:00 +1°C° 0.3 mm 10 mps 741 mmHg 62%
    12:00 +1°C° 0.3 mm 10 mps 741 mmHg 62%
    13:00 +1°C° 0.5 mm 10 mps 742 mmHg 62%
    14:00 +1°C° 0.5 mm 11 mps 742 mmHg 63%
    15:00 +1°C° 0.5 mm 11 mps 742 mmHg 63%
    16:00 +1°C° 0.3 mm 11 mps 742 mmHg 64%
    17:00 +1°C° 0.3 mm 11 mps 743 mmHg 64%
    18:00 +1°C° 0.3 mm 11 mps 743 mmHg 64%
    19:00 0°C° 0.4 mm 12 mps 743 mmHg 64%
    20:00 0°C° 0.4 mm 12 mps 744 mmHg 64%
    21:00 0°C° 0.4 mm 12 mps 744 mmHg 63%
    22:00 0°C° 0.4 mm 12 mps 744 mmHg 63%
    23:00 0°C° 0.4 mm 13 mps 745 mmHg 62%

    Tomorrow, 25 November, Saturday

    Time Temperature Precipitation Wind Pressure Humidity
    00:00 0°C° 0.4 mm 13 mps 745 mmHg 61%
    01:00 0°C° 0.2 mm 14 mps 745 mmHg 61%
    02:00 0°C° 0.2 mm 14 mps 745 mmHg 61%
    03:00 0°C° 0.2 mm 15 mps 745 mmHg 60%
    04:00 0°C° 0.2 mm 15 mps 745 mmHg 61%
    05:00 +1°C° 0.2 mm 15 mps 745 mmHg 61%
    06:00 +1°C° 0.2 mm 16 mps 746 mmHg 62%
    07:00 +1°C° 0.3 mm 16 mps 746 mmHg 63%
    08:00 +1°C° 0.3 mm 16 mps 746 mmHg 64%
    09:00 +1°C° 0.3 mm 16 mps 747 mmHg 66%
    10:00 +1°C° 0.3 mm 15 mps 747 mmHg 65%
    11:00 +1°C° 0.3 mm 15 mps 748 mmHg 65%
    12:00 +1°C° 0.3 mm 15 mps 748 mmHg 64%
    13:00 +1°C° 0.2 mm 15 mps 748 mmHg 64%
    14:00 +1°C° 0.2 mm 15 mps 749 mmHg 63%
    15:00 +1°C° 0.2 mm 14 mps 749 mmHg 62%
    16:00 0°C° 0.2 mm 14 mps 750 mmHg 63%
    17:00 0°C° 0.2 mm 14 mps 750 mmHg 63%
    18:00 0°C° 0.2 mm 13 mps 750 mmHg 64%
    19:00 0°C° 0.1 mm 13 mps 751 mmHg 64%
    20:00 0°C° 0.1 mm 13 mps 751 mmHg 64%
    21:00 0°C° 0.1 mm 12 mps 752 mmHg 64%
    22:00 0°C° 0.1 mm 12 mps 752 mmHg 64%
    23:00 0°C° 0.1 mm 12 mps 752 mmHg 63%

    Day after tomorrow, 26 November, Sunday

    Time Temperature Precipitation Wind Pressure Humidity
    00:00 0°C° 0.1 mm 12 mps 752 mmHg 63%
    01:00 0°C° 0.1 mm 12 mps 753 mmHg 64%
    02:00 +1°C° 0.1 mm 11 mps 753 mmHg 64%
    03:00 +1°C° 0.1 mm 11 mps 753 mmHg 65%
    04:00 +1°C° 0.1 mm 11 mps 753 mmHg 66%
    05:00 +1°C° 0.1 mm 10 mps 754 mmHg 67%
    06:00 +1°C° 0.1 mm 10 mps 754 mmHg 69%
    07:00 +1°C° 0.1 mm 9 mps 754 mmHg 69%
    08:00 +1°C° 0.1 mm 8 mps 754 mmHg 69%
    09:00 +1°C° 0.1 mm 8 mps 754 mmHg 68%
    10:00 +2°C° 0 mm 7 mps 755 mmHg 68%
    11:00 +2°C° 0 mm 7 mps 755 mmHg 67%
    12:00 +3°C° 0 mm 7 mps 755 mmHg 67%
    13:00 +3°C° 0 mm 6 mps 755 mmHg 67%
    14:00 +3°C° 0 mm 5 mps 754 mmHg 68%
    15:00 +4°C° 0 mm 4 mps 754 mmHg 68%
    16:00 +4°C° 0 mm 4 mps 753 mmHg 69%
    17:00 +4°C° 0 mm 4 mps 753 mmHg 70%
    18:00 +4°C° 0 mm 3 mps 752 mmHg 71%
    19:00 +4°C° 0.1 mm 4 mps 751 mmHg 74%
    20:00 +3°C° 0.1 mm 5 mps 750 mmHg 77%
    21:00 +3°C° 0.1 mm 6 mps 749 mmHg 81%
    22:00 +3°C° 0.4 mm 6 mps 749 mmHg 83%
    23:00 +3°C° 0.4 mm 6 mps 748 mmHg 86%

    27 November, Monday

    Time Temperature Precipitation Wind Pressure Humidity
    00:00 +3°C° 0.4 mm 6 mps 748 mmHg 88%
    01:00 +4°C° 0.7 mm 7 mps 748 mmHg 88%
    02:00 +4°C° 0.7 mm 8 mps 748 mmHg 87%
    03:00 +5°C° 0.7 mm 9 mps 748 mmHg 86%
    04:00 +3°C° 0.2 mm 10 mps 748 mmHg 80%
    05:00 +3°C° 0.2 mm 11 mps 748 mmHg 75%
    06:00 +3°C° 0.2 mm 13 mps 748 mmHg 70%
    07:00 +3°C° 0.1 mm 12 mps 749 mmHg 68%
    08:00 +3°C° 0.1 mm 11 mps 749 mmHg 67%
    09:00 +3°C° 0.1 mm 10 mps 749 mmHg 65%
    10:00 +3°C° 0.1 mm 10 mps 749 mmHg 67%
    11:00 +3°C° 0.1 mm 9 mps 749 mmHg 68%
    12:00 +4°C° 0.1 mm 8 mps 748 mmHg 69%
    13:00 +4°C° 0.1 mm 8 mps 748 mmHg 71%
    14:00 +4°C° 0.1 mm 8 mps 747 mmHg 72%
    15:00 +5°C° 0.1 mm 8 mps 746 mmHg 74%
    16:00 +4°C° 0.6 mm 8 mps 745 mmHg 79%
    17:00 +4°C° 0.6 mm 7 mps 744 mmHg 84%
    18:00 +4°C° 0.6 mm 7 mps 743 mmHg 90%
    19:00 +5°C° 1.3 mm 7 mps 742 mmHg 89%
    20:00 +5°C° 1.3 mm 7 mps 741 mmHg 88%
    21:00 +5°C° 1.3 mm 7 mps 740 mmHg 88%
    22:00 +5°C° 1.6 mm 6 mps 739 mmHg 87%
    23:00 +6°C° 1.6 mm 5 mps 738 mmHg 87%

    28 November, Tuesday

    Time Temperature Precipitation Wind Pressure Humidity
    00:00 +6°C° 1.6 mm 5 mps 738 mmHg 87%
    01:00 +5°C° 0.6 mm 6 mps 738 mmHg 88%
    02:00 +5°C° 0.6 mm 8 mps 739 mmHg 88%
    03:00 +5°C° 0.6 mm 9 mps 739 mmHg 89%
    04:00 +4°C° 0.1 mm 11 mps 740 mmHg 83%
    05:00 +4°C° 0.1 mm 12 mps 741 mmHg 78%
    06:00 +4°C° 0.1 mm 13 mps 742 mmHg 72%
    07:00 +4°C° 0.1 mm 13 mps 743 mmHg 73%
    08:00 +3°C° 0.1 mm 14 mps 744 mmHg 74%
    09:00 +3°C° 0.1 mm 14 mps 745 mmHg 75%
    10:00 +3°C° 0.2 mm 14 mps 746 mmHg 73%
    11:00 +3°C° 0.2 mm 13 mps 746 mmHg 71%
    12:00 +1°C° 0.2 mm 13 mps 747 mmHg 70%
    13:00 +2°C° 0.3 mm 12 mps 747 mmHg 70%
    14:00 +2°C° 0.3 mm 12 mps 747 mmHg 70%
    15:00 +2°C° 0.3 mm 12 mps 747 mmHg 71%
    16:00 +2°C° 0.2 mm 12 mps 748 mmHg 69%
    17:00 +1°C° 0.2 mm 13 mps 748 mmHg 68%
    18:00 +1°C° 0.2 mm 13 mps 749 mmHg 67%
    19:00 +1°C° 0.4 mm 14 mps 749 mmHg 68%
    20:00 +1°C° 0.4 mm 14 mps 750 mmHg 69%
    21:00 +1°C° 0.4 mm 15 mps 750 mmHg 70%
    22:00 +1°C° 0.2 mm 14 mps 750 mmHg 70%
    23:00 +1°C° 0.2 mm 14 mps 750 mmHg 70%

    29 November, Wednesday

    Time Temperature Precipitation Wind Pressure Humidity
    00:00 +1°C° 0.2 mm 14 mps 751 mmHg 70%
    01:00 +1°C° 0.2 mm 14 mps 751 mmHg 70%
    02:00 +1°C° 0.2 mm 14 mps 751 mmHg 70%
    03:00 +1°C° 0.2 mm 15 mps 751 mmHg 71%
    04:00 +1°C° 0.3 mm 14 mps 751 mmHg 71%
    05:00 +1°C° 0.3 mm 14 mps 751 mmHg 71%
    06:00 +1°C° 0.3 mm 13 mps 752 mmHg 71%
    07:00 +1°C° 0.3 mm 13 mps 752 mmHg 72%
    08:00 +2°C° 0.3 mm 12 mps 752 mmHg 73%
    09:00 +2°C° 0.3 mm 12 mps 753 mmHg 74%
    10:00 +2°C° 0.2 mm 11 mps 753 mmHg 73%
    11:00 +2°C° 0.2 mm 11 mps 753 mmHg 73%
    12:00 +2°C° 0.2 mm 11 mps 753 mmHg 72%
    13:00 +1°C° 0.1 mm 10 mps 753 mmHg 71%
    14:00 +1°C° 0.1 mm 10 mps 754 mmHg 70%
    15:00 +1°C° 0.1 mm 10 mps 754 mmHg 69%
    16:00 +1°C° 0.1 mm 10 mps 754 mmHg 68%
    17:00 0°C° 0.1 mm 9 mps 754 mmHg 68%
    18:00 0°C° 0.1 mm 9 mps 754 mmHg 68%
    19:00 0°C° 0.1 mm 9 mps 754 mmHg 67%
    20:00 0°C° 0.1 mm 9 mps 754 mmHg 66%
    21:00 0°C° 0.1 mm 9 mps 754 mmHg 65%
    22:00 0°C° 0.2 mm 9 mps 754 mmHg 65%
    23:00 0°C° 0.2 mm 9 mps 754 mmHg 66%
    Show more